{"data":{"norad_id":66983,"epoch":"2026-09-20T00:06:22.592160Z","epoch_age_seconds":124350,"freshness":"FRESH","line1":"1 66983U 25288AA  26263.00442815  .00014463  00000+0  53393-3 0  9993","line2":"2 66983  43.0019   6.2060 0001607 266.7161  93.3507 15.27587508 45002","mean_motion":15.27587508,"eccentricity":0.0001607,"inclination_deg":43.0019,"raan_deg":6.206,"arg_perigee_deg":266.7161,"mean_anomaly_deg":93.3507,"bstar":0.00053393,"rev_number":4500,"period_min":94.266285398296,"perigee_km":481.9240254859,"apogee_km":484.12920347159,"semimajor_km":6861.1636144787,"source":"CELESTRAK","updated_at":"2026-09-21T09:00:36.067050Z"}}